Date,TemperatureHighF,TemperatureAvgF,TemperatureLowF,DewpointHighF,DewpointAvgF,DewpointLowF,HumidityHigh,HumidityAvg,HumidityLow,PressureMaxIn,PressureMinIn,WindSpeedMaxMPH,WindSpeedAvgMPH,GustSpeedMaxMPH,PrecipitationSumIn
2013-1-1,73.6,63.7,54.2,63.6,58.6,52.3,97,84,67,30.21,30.03,17,3,23,0.00
2013-1-2,77.5,66.6,57.9,68.3,62.6,56.5,96,87,70,30.06,29.96,12,3,20,0.01
2013-1-3,76.0,64.9,58.9,69.0,62.6,56.5,98,93,77,30.17,30.02,11,2,20,0.04
2013-1-4,59.7,57.8,54.8,58.6,56.8,53.7,97,96,95,30.27,30.14,8,4,20,0.12
2013-1-5,76.0,63.3,54.6,65.0,58.3,52.3,97,84,68,30.29,30.17,8,4,20,0.00
2013-1-6,80.4,67.9,61.5,70.4,64.2,59.2,98,88,69,30.20,30.04,10,2,20,0.00
2013-1-7,71.0,63.8,57.2,62.3,59.1,52.7,95,85,66,30.22,30.11,10,6,20,0.00
2013-1-8,81.1,70.9,63.2,72.0,67.0,61.4,98,88,70,30.22,30.12,6,2,11,0.00
2013-1-9,81.8,72.6,66.8,74.6,69.6,65.9,98,91,74,30.30,30.18,12,4,18,0.01
2013-1-10,81.0,71.9,65.8,71.4,67.0,64.2,100,86,63,30.30,30.21,12,5,19,0.01
2013-1-11,79.8,70.8,62.3,69.7,65.9,61.1,98,85,65,30.26,30.14,14,5,17,0.01
2013-1-12,83.7,70.6,61.6,69.2,64.9,60.7,98,84,54,30.19,30.08,10,3,15,0.00
2013-1-13,79.7,70.1,60.7,69.6,65.1,59.8,98,85,62,30.16,30.06,10,4,15,0.01
2013-1-14,79.0,69.7,61.3,69.2,65.2,60.4,98,86,67,30.19,30.10,11,4,15,0.01
2013-1-15,80.5,70.6,63.4,70.5,65.9,62.1,98,86,62,30.15,30.04,11,3,15,0.00
2013-1-16,83.3,70.7,61.9,68.0,64.5,60.6,97,82,54,30.10,29.99,7,3,15,0.00
2013-1-17,76.8,65.3,54.4,69.4,61.2,48.3,96,87,73,30.10,29.94,27,12,37,0.01
2013-1-18,65.0,54.8,41.4,61.1,49.0,35.9,94,81,74,30.28,30.09,18,7,34,0.03
2013-1-19,74.8,64.4,56.0,62.5,58.3,52.8,92,81,63,30.28,30.13,12,6,22,0.00
2013-1-20,73.8,64.1,59.8,65.2,59.8,54.6,97,86,72,30.17,30.04,9,4,16,0.01
2013-1-21,74.3,64.7,59.5,65.4,59.4,56.2,92,83,68,30.09,29.98,5,1,10,0.03
2013-1-22,64.5,58.1,49.2,56.5,47.0,40.6,88,67,47,30.27,30.05,10,4,19,0.00
2013-1-23,70.2,55.9,45.8,47.1,42.0,36.6,88,63,32,30.35,30.26,6,3,11,0.00
2013-1-24,72.7,59.4,47.5,57.2,49.9,43.4,92,73,47,30.32,30.21,11,4,18,0.00
2013-1-25,76.8,62.5,52.5,61.6,54.6,48.4,97,78,46,30.30,30.16,10,2,17,0.00
2013-1-26,75.7,61.8,50.7,61.5,54.7,48.9,97,79,53,30.26,30.15,8,2,15,0.01
2013-1-27,78.8,65.7,54.4,63.8,59.4,53.3,98,82,54,30.31,30.21,9,3,17,0.01
2013-1-28,77.0,69.2,63.2,66.1,64.0,61.1,94,84,69,30.33,30.23,12,5,18,0.00
2013-1-29,81.0,70.4,62.7,69.4,65.9,61.8,98,86,61,30.25,30.09,13,6,19,0.00
2013-1-30,79.3,72.0,65.8,67.6,66.1,64.0,95,82,65,30.11,29.87,25,13,34,0.00
2013-1-31,70.7,59.2,49.5,67.3,46.5,31.1,94,65,38,30.22,29.88,21,9,35,0.07